Temp
55 56 56 57 57 57 56 57 57 56 56 56 56 56 56 56 56 56 56 56 56 56 56 55 54 53 52 52 52 52 52 52 52 53 53 53 54 54 55 55 56 57 57 57 58 58 58 58 59 59 59 58 58 58 57 57 57 57 57 58 58 58 59 59 60 59 59 59 59
55 55 55 56 56 56 56 56 56 56 56 55 55 55 55 55 55 55 55 54 55 55 55 54 53 52 52 52 52 52 52 52 51 52 52 53 54 55 55 55 56 56 56 57 57 57 58 58 58 58 58 58 58 57 56 56 57 57 58 58 58 59 59 60 60 60 60 59 59
54 54 55 55 55 55 55 55 54 54 53 54 54 54 54 54 54 54 54 54 53 53 53 53 52 51 51 51 51 52 51 51 51 51 51 53 54 55 55 54 55 55 56 56 56 56 56 56 56 56 56 56 56 56 56 56 56 57 58 57 56 57 58 59 60 60 60 60 60
54 54 54 53 53 53 53 54 53 52 52 53 52 52 53 53 53 53 53 51 52 52 52 51 51 51 51 51 51 51 51 51 51 51 52 53 53 54 54 54 54 55 55 55 55 55 55 55 55 55 55 54 54 54 54 54 55 55 55 54 54 54 54 54 56 57 59 59 58
53 53 53 52 52 51 51 51 51 51 51 52 52 52 52 52 52 51 51 51 51 51 51 50 50 50 50 50 51 51 51 52 52 51 51 51 52 53 53 53 53 53 53 53 54 54 54 54 54 54 53 53 53 53 53 53 53 53 53 52 52 52 52 52 53 54 55 55 54
53 52 52 52 52 51 51 51 51 51 51 51 51 50 50 51 51 51 51 50 50 49 49 50 50 50 50 50 50 51 51 50 50 50 50 50 49 50 51 53 52 52 52 53 53 53 53 53 53 53 53 53 53 53 53 53 52 52 51 51 51 51 51 51 51 52 52 52 51
54 53 53 52 52 52 51 51 50 50 50 50 49 49 49 49 49 49 49 48 48 49 49 50 50 50 49 49 50 50 50 48 48 48 49 49 49 50 51 51 51 52 52 53 53 53 52 52 52 52 52 52 52 52 52 52 51 51 50 50 50 50 50 50 50 51 51 51 50
53 53 52 52 52 52 51 51 50 50 50 50 49 49 48 48 48 48 48 48 48 48 49 49 48 48 49 49 50 51 52 50 48 48 48 48 49 50 50 50 50 51 51 52 52 51 51 51 51 51 51 51 51 51 51 51 50 50 49 49 49 49 50 50 50 50 50 50 49
52 52 51 51 51 51 51 50 50 50 49 49 48 48 48 48 48 48 48 48 48 48 48 48 48 48 49 50 51 52 52 51 50 50 49 49 50 50 49 49 49 50 50 51 49 49 49 50 50 50 50 50 50 50 50 50 49 49 48 48 48 48 49 49 49 49 49 49 48
52 51 51 51 50 50 50 50 49 49 48 48 47 48 48 49 48 48 47 48 48 48 47 47 48 48 49 50 51 51 50 51 52 51 50 50 49 49 48 48 48 48 48 48 47 46 47 48 48 49 50 49 49 49 49 48 48 48 47 47 47 47 47 47 48 48 48 47 47
51 51 51 50 50 50 50 49 49 48 48 47 47 47 47 48 48 47 47 47 48 47 47 46 47 48 49 50 50 51 51 51 51 50 49 49 49 48 48 48 47 47 47 47 47 46 45 45 46 47 49 48 48 48 48 48 47 47 47 47 46 46 46 46 46 46 46 45 45
50 50 49 49 49 49 49 48 48 48 47 47 47 46 46 45 46 47 48 48 48 47 46 47 48 49 49 50 50 51 51 51 51 50 50 49 48 47 47 47 47 47 47 47 46 44 43 43 44 44 45 46 48 48 48 47 47 46 46 46 46 46 45 45 45 45 45 44 45
49 48 48 48 48 48 47 47 46 46 46 46 46 45 45 44 45 46 47 48 48 48 47 49 50 50 50 50 49 50 51 51 52 51 50 49 47 46 45 46 47 47 46 44 44 43 42 42 42 43 44 44 46 47 47 47 46 46 46 46 46 46 45 45 45 45 45 44 44
48 48 47 47 47 46 46 45 45 45 45 45 44 44 44 44 45 45 46 47 47 48 48 49 50 51 51 50 50 51 51 51 51 51 49 47 46 45 44 45 46 47 47 44 43 42 42 42 42 43 43 43 44 46 46 46 46 45 45 45 45 45 45 45 45 44 44 44 44
47 47 47 46 46 46 45 45 44 44 44 44 44 43 43 43 44 45 45 46 47 48 47 47 49 50 51 51 51 51 52 52 51 50 48 46 44 44 43 44 46 47 48 45 43 42 42 43 44 45 44 43 44 44 45 44 44 44 45 44 44 44 44 44 44 43 43 43 43
47 46 46 46 46 45 45 44 44 44 44 44 43 43 43 43 44 45 46 47 48 48 47 47 48 49 50 51 51 52 52 52 50 48 46 44 42 42 42 42 44 46 47 46 44 44 44 45 46 46 45 44 44 44 44 43 43 44 44 43 43 43 43 43 43 43 42 42 43
46 46 46 46 45 45 44 43 43 43 43 43 43 43 43 43 44 46 48 49 49 48 48 48 49 48 48 49 49 50 50 50 48 46 43 41 40 40 40 41 42 44 45 45 45 45 46 46 46 46 45 44 44 44 44 44 44 44 44 44 44 43 43 44 43 43 42 42 42
45 45 45 45 44 44 43 42 42 43 43 43 43 43 43 44 44 46 48 50 50 49 49 49 50 49 48 48 47 46 47 47 46 44 42 40 39 39 39 39 40 41 42 44 45 45 45 45 45 45 45 44 44 44 44 44 44 44 44 44 43 43 43 43 43 42 42 42 42
44 44 44 44 43 42 42 42 42 42 42 42 43 44 44 45 45 46 47 49 49 48 47 49 49 49 49 48 46 46 46 46 45 43 41 39 39 39 39 39 39 39 41 42 43 44 44 45 45 45 45 44 44 44 44 44 43 43 43 43 43 42 42 42 42 42 42 42 42
43 43 43 43 42 41 41 42 41 41 41 41 41 43 44 44 44 44 46 47 47 47 47 47 48 48 48 47 46 46 46 46 44 42 40 39 38 38 39 39 39 40 41 43 43 44 44 44 44 44 44 44 43 43 43 43 43 42 42 42 42 42 42 42 42 42 41 41 41
43 43 43 42 41 41 41 41 41 41 41 41 41 42 42 42 42 44 45 47 46 46 47 48 48 47 47 46 46 45 45 45 43 41 39 39 39 40 41 41 41 42 42 43 43 44 44 44 44 44 44 43 43 42 42 42 42 42 42 42 42 42 42 42 41 41 41 41 41
43 43 42 41 41 41 41 41 40 40 41 41 41 42 42 42 43 44 45 46 45 46 46 47 46 46 46 45 45 45 45 44 42 40 40 40 41 41 42 42 42 42 42 42 42 43 44 44 44 43 43 43 42 42 42 42 41 41 41 41 41 41 41 41 41 41 41 41 41
42 42 42 41 41 41 41 41 40 40 41 41 41 42 42 43 44 45 46 45 45 45 46 45 45 45 44 44 44 44 44 43 41 41 41 41 40 40 40 39 41 41 41 41 42 42 43 43 43 43 43 42 42 42 42 42 41 41 41 41 41 41 41 40 40 40 40 40 40
41 41 41 41 41 41 40 40 40 40 41 41 41 42 43 44 46 46 45 44 44 44 44 45 44 44 43 43 44 44 43 42 40 40 41 40 40 40 39 39 39 40 41 41 42 43 43 43 43 42 42 42 42 42 42 42 41 41 41 41 41 40 40 40 39 39 39 39 39
40 40 41 40 40 40 40 40 40 40 40 40 41 42 43 44 44 44 43 43 43 43 43 43 43 43 43 43 43 43 42 41 40 40 40 40 40 40 39 38 39 40 41 42 44 45 45 45 43 43 42 42 42 42 42 41 41 41 41 41 41 40 40 39 39 39 39 38 39
40 40 40 40 39 39 39 39 39 39 39 40 42 43 43 43 43 44 43 43 42 42 43 42 42 42 43 42 42 42 41 41 41 40 40 40 40 39 39 39 40 41 41 43 45 46 47 46 45 44 43 42 42 42 41 41 41 41 41 41 41 40 40 39 39 38 38 38 38
39 39 39 39 39 39 39 39 39 39 39 40 42 43 43 41 42 42 42 42 41 41 41 42 42 42 42 41 41 41 41 41 40 40 40 40 40 39 38 38 40 41 41 43 45 46 47 47 47 45 44 42 42 42 41 41 41 41 41 41 41 40 40 39 38 38 37 37 36
39 39 38 38 39 38 38 38 39 39 39 39 40 41 41 40 39 39 40 41 40 40 40 41 41 41 41 40 40 40 40 40 40 39 38 37 39 38 38 38 39 41 43 44 46 46 47 48 47 46 45 43 41 41 41 41 41 41 40 40 40 39 39 38 38 37 36 35 33
39 38 38 38 38 38 38 38 38 38 38 39 39 39 38 38 38 38 38 39 39 38 38 38 40 39 38 38 39 39 39 39 40 39 38 38 38 38 39 40 40 41 43 45 46 46 47 47 47 47 46 44 41 41 41 41 41 40 40 39 39 38 38 38 37 35 34 32 31
38 38 38 38 37 37 37 37 37 37 37 37 38 38 38 37 37 37 37 36 36 36 37 37 38 37 36 37 38 38 38 38 39 39 39 39 39 39 40 40 40 41 43 45 46 46 46 47 47 47 46 45 42 41 40 40 39 39 38 38 38 38 37 37 35 33 32 31 31
37 38 38 37 37 37 37 37 37 37 37 37 37 37 37 37 37 37 37 36 36 37 39 39 38 38 38 38 39 38 37 37 38 39 39 39 40 40 39 39 39 40 42 45 46 46 46 47 47 46 46 45 42 40 38 38 38 37 37 37 37 36 36 36 35 33 31 31 31
37 37 37 37 37 37 37 37 38 37 37 37 37 36 37 37 38 38 37 37 37 38 39 41 40 39 39 40 40 38 37 36 37 38 40 40 40 39 39 39 39 41 42 45 45 46 46 47 46 46 45 44 41 38 36 36 36 36 36 36 36 36 36 36 36 34 32 31 31
37 37 37 37 37 37 37 38 38 38 38 37 36 36 37 38 39 38 38 39 39 38 38 39 38 38 39 39 38 37 37 37 38 39 40 41 39 38 38 39 39 41 43 44 45 46 46 46 46 45 44 43 39 36 34 34 34 34 34 34 34 34 34 35 34 33 32 31 32
38 38 37 37 37 37 38 39 39 40 39 38 37 37 38 39 39 38 38 38 38 37 37 37 37 37 38 38 38 37 38 39 39 40 40 41 39 38 38 38 39 41 44 45 46 46 46 46 45 44 43 42 38 35 34 33 33 32 32 31 30 30 29 30 30 30 30 30 31
41 39 37 37 37 38 39 39 40 41 40 39 37 38 39 40 39 37 36 36 37 37 37 38 38 38 38 38 38 38 38 39 39 40 40 40 39 39 38 38 39 42 44 45 45 45 45 45 44 43 42 40 37 35 35 34 33 32 31 31 30 29 28 28 28 28 28 28 29
43 41 39 37 38 39 40 40 41 41 40 38 38 38 39 40 38 36 35 36 36 37 38 38 38 37 36 34 34 35 36 36 38 39 39 40 39 38 38 38 39 41 44 45 45 45 44 44 43 42 41 38 36 35 35 34 33 32 32 32 31 30 29 29 29 28 28 27 28
43 41 40 39 40 41 41 41 41 41 40 38 37 38 39 39 37 36 35 36 35 36 37 37 36 34 33 32 32 33 33 34 35 37 39 39 38 37 37 37 37 40 43 44 44 44 44 43 43 41 39 36 34 34 34 34 34 33 33 33 32 31 30 30 30 30 30 29 29
43 41 40 41 41 41 42 42 41 41 40 38 37 37 38 38 37 36 35 36 34 35 36 36 34 33 32 32 32 32 33 33 35 36 37 37 37 36 36 36 36 38 41 44 44 44 43 43 42 41 39 35 34 33 34 34 33 33 32 32 31 31 30 29 29 30 31 33 34
42 42 41 41 41 41 41 41 41 40 39 38 37 37 37 38 37 36 35 35 34 34 34 34 33 32 32 33 33 33 33 33 34 35 35 35 36 37 37 36 36 37 40 43 43 43 43 43 42 41 39 36 33 33 33 33 32 32 31 31 30 30 29 28 28 29 30 33 38
42 42 41 41 41 41 41 40 40 39 39 38 37 37 37 37 36 36 36 36 34 34 33 33 32 32 33 34 33 33 32 33 34 35 35 35 36 38 38 36 36 37 39 42 43 43 43 43 43 42 39 35 32 31 32 32 31 30 29 29 29 28 28 28 27 28 28 30 35
42 42 41 41 41 41 41 40 39 39 38 38 37 37 37 37 37 37 37 36 36 35 35 34 33 33 34 35 34 33 32 33 34 34 35 36 37 38 38 36 35 36 37 40 42 43 43 43 43 42 40 35 31 30 30 31 30 29 28 27 26 26 27 26 26 26 26 26 28
MSLP
1016.95 1016.99 1017.07 1017.15 1017.23 1017.35 1017.51 1017.63 1017.71 1017.79 1017.83 1017.95 1018.07 1018.19 1018.23 1018.35 1018.43 1018.47 1018.51 1018.51 1018.55 1018.63 1018.71 1018.79 1018.83 1018.95 1018.99 1019.07 1019.07 1019.07 1019.15 1019.23 1019.23 1019.27 1019.31 1019.31 1019.31 1019.27 1019.23 1019.23 1019.23 1019.15 1019.11 1019.03 1018.95 1018.87 1018.79 1018.71 1018.63 1018.55 1018.47 1018.39 1018.35 1018.27 1018.19 1018.11 1018.07 1018.03 1017.99 1017.95 1017.91 1017.79 1017.79 1017.79 1017.79 1017.87 1017.95 1017.99 1018.03
1017.07 1017.07 1017.15 1017.23 1017.35 1017.43 1017.55 1017.67 1017.79 1017.83 1017.95 1017.99 1018.07 1018.19 1018.23 1018.31 1018.39 1018.47 1018.51 1018.51 1018.51 1018.59 1018.67 1018.75 1018.83 1018.95 1018.99 1019.07 1019.07 1019.11 1019.19 1019.23 1019.27 1019.31 1019.31 1019.31 1019.31 1019.27 1019.23 1019.23 1019.23 1019.15 1019.07 1019.07 1018.95 1018.91 1018.79 1018.75 1018.67 1018.59 1018.51 1018.43 1018.39 1018.27 1018.19 1018.07 1018.03 1017.99 1017.95 1017.91 1017.79 1017.75 1017.67 1017.67 1017.63 1017.67 1017.75 1017.83 1017.87
1017.15 1017.19 1017.23 1017.35 1017.43 1017.55 1017.67 1017.79 1017.87 1017.95 1018.07 1018.07 1018.07 1018.15 1018.23 1018.31 1018.39 1018.43 1018.51 1018.51 1018.59 1018.63 1018.67 1018.79 1018.87 1018.95 1018.99 1019.07 1019.07 1019.11 1019.19 1019.23 1019.23 1019.27 1019.31 1019.31 1019.27 1019.23 1019.23 1019.23 1019.19 1019.15 1019.07 1019.07 1018.99 1018.95 1018.87 1018.79 1018.79 1018.71 1018.63 1018.55 1018.51 1018.39 1018.31 1018.15 1018.07 1018.03 1017.95 1017.87 1017.87 1017.79 1017.71 1017.63 1017.55 1017.55 1017.63 1017.67 1017.79
1017.19 1017.23 1017.35 1017.43 1017.51 1017.67 1017.75 1017.79 1017.95 1018.03 1018.07 1018.11 1018.11 1018.19 1018.23 1018.31 1018.39 1018.43 1018.51 1018.55 1018.63 1018.67 1018.75 1018.83 1018.95 1018.99 1019.03 1019.07 1019.11 1019.19 1019.23 1019.23 1019.23 1019.23 1019.27 1019.27 1019.27 1019.23 1019.23 1019.19 1019.19 1019.15 1019.11 1019.07 1019.03 1018.95 1018.87 1018.83 1018.79 1018.79 1018.75 1018.67 1018.59 1018.51 1018.39 1018.31 1018.23 1018.11 1018.07 1017.99 1017.95 1017.91 1017.83 1017.75 1017.63 1017.55 1017.59 1017.63 1017.71
1017.23 1017.27 1017.35 1017.51 1017.55 1017.67 1017.79 1017.87 1017.95 1018.03 1018.07 1018.07 1018.11 1018.23 1018.27 1018.31 1018.39 1018.43 1018.51 1018.59 1018.71 1018.75 1018.79 1018.91 1018.95 1019.03 1019.07 1019.07 1019.15 1019.19 1019.23 1019.23 1019.19 1019.23 1019.31 1019.31 1019.23 1019.19 1019.15 1019.19 1019.19 1019.19 1019.15 1019.07 1018.99 1018.95 1018.87 1018.83 1018.87 1018.83 1018.79 1018.75 1018.67 1018.59 1018.51 1018.39 1018.35 1018.27 1018.23 1018.15 1018.07 1017.99 1017.95 1017.83 1017.79 1017.75 1017.67 1017.75 1017.87
1017.27 1017.35 1017.39 1017.51 1017.59 1017.71 1017.79 1017.87 1017.95 1017.99 1018.07 1018.07 1018.15 1018.27 1018.35 1018.39 1018.39 1018.51 1018.63 1018.71 1018.79 1018.83 1018.91 1018.95 1018.99 1019.07 1019.07 1019.15 1019.15 1019.23 1019.23 1019.27 1019.27 1019.27 1019.27 1019.27 1019.23 1019.23 1019.19 1019.19 1019.19 1019.15 1019.07 1019.03 1018.95 1018.95 1018.91 1018.91 1018.91 1018.87 1018.83 1018.79 1018.75 1018.67 1018.63 1018.51 1018.43 1018.39 1018.39 1018.39 1018.31 1018.19 1018.07 1017.99 1017.91 1017.83 1017.83 1017.95 1018.07
1017.23 1017.31 1017.43 1017.51 1017.63 1017.71 1017.79 1017.91 1017.95 1018.03 1018.07 1018.11 1018.23 1018.35 1018.43 1018.51 1018.51 1018.63 1018.71 1018.79 1018.87 1018.95 1018.95 1018.99 1019.07 1019.07 1019.11 1019.19 1019.19 1019.19 1019.23 1019.31 1019.31 1019.27 1019.23 1019.23 1019.23 1019.19 1019.15 1019.15 1019.11 1019.07 1019.07 1018.99 1018.95 1018.99 1018.95 1018.95 1018.95 1018.91 1018.87 1018.83 1018.79 1018.79 1018.71 1018.67 1018.55 1018.51 1018.51 1018.51 1018.47 1018.39 1018.31 1018.19 1018.07 1017.99 1017.99 1018.07 1018.15
1017.23 1017.31 1017.43 1017.51 1017.59 1017.71 1017.79 1017.91 1017.95 1018.03 1018.11 1018.23 1018.31 1018.39 1018.47 1018.55 1018.63 1018.67 1018.75 1018.83 1018.95 1018.99 1019.03 1019.07 1019.07 1019.11 1019.15 1019.15 1019.15 1019.15 1019.15 1019.23 1019.27 1019.23 1019.23 1019.23 1019.19 1019.19 1019.15 1019.15 1019.11 1019.07 1019.03 1018.99 1018.99 1019.03 1018.99 1018.99 1018.95 1018.95 1018.91 1018.91 1018.91 1018.87 1018.79 1018.79 1018.67 1018.63 1018.63 1018.67 1018.63 1018.59 1018.51 1018.35 1018.19 1018.11 1018.15 1018.23 1018.31
1017.27 1017.35 1017.43 1017.51 1017.63 1017.71 1017.79 1017.91 1017.99 1018.07 1018.23 1018.31 1018.39 1018.43 1018.51 1018.59 1018.67 1018.71 1018.79 1018.91 1018.95 1018.99 1019.03 1019.07 1019.07 1019.11 1019.11 1019.11 1019.11 1019.11 1019.15 1019.15 1019.15 1019.19 1019.23 1019.23 1019.19 1019.19 1019.19 1019.19 1019.15 1019.07 1019.03 1019.03 1019.07 1019.07 1019.07 1019.07 1018.99 1018.95 1018.95 1018.99 1018.99 1018.99 1018.95 1018.91 1018.83 1018.79 1018.79 1018.75 1018.79 1018.79 1018.75 1018.63 1018.43 1018.35 1018.31 1018.39 1018.47
1017.31 1017.35 1017.51 1017.59 1017.67 1017.79 1017.87 1017.95 1018.07 1018.15 1018.23 1018.39 1018.43 1018.51 1018.55 1018.63 1018.67 1018.75 1018.83 1018.91 1018.95 1018.99 1019.03 1019.07 1019.07 1019.07 1019.11 1019.11 1019.07 1019.11 1019.11 1019.07 1019.07 1019.11 1019.19 1019.23 1019.23 1019.23 1019.23 1019.23 1019.15 1019.11 1019.07 1019.07 1019.11 1019.15 1019.19 1019.15 1019.11 1019.07 1019.03 1019.07 1019.07 1019.07 1019.07 1019.03 1019.03 1018.99 1018.95 1018.87 1018.87 1018.91 1018.95 1018.91 1018.79 1018.67 1018.51 1018.51 1018.63
1017.31 1017.39 1017.51 1017.67 1017.75 1017.83 1017.95 1018.07 1018.15 1018.23 1018.31 1018.43 1018.51 1018.55 1018.59 1018.67 1018.71 1018.79 1018.83 1018.87 1018.95 1018.99 1019.07 1019.07 1019.07 1019.07 1019.07 1019.07 1019.07 1019.07 1019.07 1019.07 1019.07 1019.11 1019.15 1019.19 1019.23 1019.23 1019.23 1019.23 1019.23 1019.19 1019.15 1019.15 1019.15 1019.19 1019.23 1019.23 1019.23 1019.15 1019.11 1019.15 1019.15 1019.15 1019.15 1019.15 1019.19 1019.15 1019.07 1019.07 1018.99 1018.99 1019.07 1019.15 1019.07 1018.95 1018.87 1018.79 1018.75
1017.35 1017.47 1017.59 1017.67 1017.79 1017.91 1018.03 1018.15 1018.23 1018.35 1018.39 1018.47 1018.51 1018.59 1018.67 1018.71 1018.75 1018.79 1018.79 1018.87 1018.95 1018.99 1019.07 1019.07 1019.07 1019.07 1019.07 1019.07 1019.07 1019.03 1019.03 1019.07 1019.07 1019.07 1019.11 1019.15 1019.23 1019.23 1019.23 1019.23 1019.23 1019.23 1019.23 1019.19 1019.23 1019.23 1019.27 1019.27 1019.31 1019.31 1019.23 1019.23 1019.23 1019.23 1019.23 1019.27 1019.31 1019.27 1019.23 1019.23 1019.11 1019.07 1019.11 1019.23 1019.23 1019.23 1019.15 1019.07 1018.99
1017.47 1017.59 1017.71 1017.79 1017.87 1017.99 1018.11 1018.23 1018.35 1018.39 1018.47 1018.51 1018.59 1018.63 1018.67 1018.79 1018.79 1018.79 1018.83 1018.91 1018.95 1018.99 1019.03 1018.99 1018.99 1018.99 1018.99 1019.03 1019.03 1019.03 1018.99 1019.03 1019.03 1019.07 1019.11 1019.19 1019.23 1019.31 1019.31 1019.31 1019.31 1019.31 1019.31 1019.35 1019.31 1019.35 1019.35 1019.39 1019.39 1019.39 1019.35 1019.35 1019.31 1019.31 1019.35 1019.35 1019.35 1019.35 1019.35 1019.31 1019.23 1019.15 1019.15 1019.23 1019.35 1019.35 1019.35 1019.31 1019.23
1017.55 1017.67 1017.79 1017.87 1017.95 1018.07 1018.23 1018.31 1018.39 1018.47 1018.51 1018.55 1018.63 1018.67 1018.67 1018.79 1018.79 1018.83 1018.87 1018.95 1018.95 1018.95 1018.99 1018.99 1018.99 1018.99 1018.99 1018.99 1019.03 1018.99 1018.99 1018.99 1019.03 1019.07 1019.15 1019.23 1019.31 1019.35 1019.39 1019.39 1019.35 1019.35 1019.35 1019.39 1019.39 1019.43 1019.47 1019.51 1019.51 1019.51 1019.47 1019.47 1019.43 1019.43 1019.43 1019.47 1019.47 1019.43 1019.39 1019.35 1019.31 1019.27 1019.27 1019.31 1019.39 1019.47 1019.51 1019.47 1019.35
1017.67 1017.79 1017.87 1017.95 1018.07 1018.15 1018.23 1018.39 1018.43 1018.51 1018.55 1018.63 1018.67 1018.67 1018.75 1018.79 1018.83 1018.87 1018.91 1018.95 1018.95 1018.95 1018.99 1019.03 1019.03 1018.99 1018.95 1018.95 1018.99 1018.99 1018.95 1018.99 1019.07 1019.11 1019.23 1019.35 1019.39 1019.47 1019.51 1019.51 1019.47 1019.43 1019.43 1019.47 1019.51 1019.51 1019.55 1019.55 1019.55 1019.51 1019.51 1019.51 1019.51 1019.51 1019.51 1019.55 1019.55 1019.51 1019.47 1019.47 1019.43 1019.43 1019.39 1019.43 1019.51 1019.59 1019.59 1019.51 1019.47
1017.75 1017.87 1017.95 1018.03 1018.11 1018.23 1018.27 1018.39 1018.47 1018.51 1018.55 1018.63 1018.67 1018.71 1018.79 1018.83 1018.87 1018.91 1018.95 1018.91 1018.91 1018.95 1018.99 1019.07 1019.07 1019.03 1018.99 1018.99 1018.95 1018.95 1018.99 1019.03 1019.11 1019.23 1019.35 1019.43 1019.51 1019.55 1019.59 1019.59 1019.55 1019.51 1019.51 1019.55 1019.59 1019.63 1019.63 1019.55 1019.55 1019.55 1019.59 1019.63 1019.63 1019.63 1019.63 1019.63 1019.63 1019.59 1019.59 1019.59 1019.59 1019.59 1019.59 1019.63 1019.67 1019.67 1019.67 1019.63 1019.55
1017.79 1017.91 1017.99 1018.07 1018.15 1018.23 1018.31 1018.39 1018.47 1018.51 1018.55 1018.63 1018.67 1018.71 1018.79 1018.83 1018.87 1018.91 1018.87 1018.87 1018.91 1018.95 1018.99 1018.99 1018.99 1018.99 1019.03 1019.03 1019.03 1019.03 1019.03 1019.07 1019.23 1019.35 1019.51 1019.59 1019.67 1019.67 1019.71 1019.67 1019.67 1019.67 1019.63 1019.67 1019.71 1019.71 1019.67 1019.63 1019.59 1019.63 1019.67 1019.67 1019.67 1019.71 1019.71 1019.67 1019.67 1019.67 1019.67 1019.71 1019.71 1019.71 1019.75 1019.75 1019.79 1019.79 1019.75 1019.71 1019.67
1017.83 1017.95 1017.99 1018.07 1018.15 1018.23 1018.31 1018.39 1018.43 1018.51 1018.55 1018.63 1018.67 1018.67 1018.75 1018.79 1018.83 1018.87 1018.83 1018.79 1018.87 1018.91 1018.95 1018.95 1018.95 1018.95 1019.03 1019.07 1019.11 1019.11 1019.15 1019.23 1019.35 1019.51 1019.59 1019.67 1019.71 1019.79 1019.79 1019.79 1019.79 1019.75 1019.75 1019.75 1019.79 1019.79 1019.79 1019.75 1019.67 1019.67 1019.71 1019.75 1019.79 1019.79 1019.79 1019.75 1019.79 1019.79 1019.79 1019.83 1019.83 1019.87 1019.87 1019.87 1019.87 1019.87 1019.87 1019.83 1019.83
1017.83 1017.95 1018.03 1018.07 1018.15 1018.23 1018.31 1018.39 1018.43 1018.51 1018.55 1018.63 1018.63 1018.67 1018.67 1018.79 1018.83 1018.87 1018.87 1018.87 1018.87 1018.91 1018.91 1018.91 1018.95 1018.99 1019.07 1019.15 1019.19 1019.23 1019.23 1019.31 1019.43 1019.55 1019.67 1019.71 1019.79 1019.79 1019.83 1019.87 1019.87 1019.87 1019.83 1019.83 1019.83 1019.83 1019.83 1019.83 1019.79 1019.79 1019.79 1019.83 1019.87 1019.87 1019.87 1019.87 1019.87 1019.87 1019.91 1019.95 1019.95 1019.95 1019.95 1019.95 1019.95 1019.99 1019.99 1019.95 1019.99
1017.83 1017.95 1017.99 1018.07 1018.11 1018.23 1018.31 1018.39 1018.39 1018.47 1018.55 1018.63 1018.63 1018.67 1018.71 1018.79 1018.91 1018.95 1018.91 1018.91 1018.91 1018.91 1018.91 1018.95 1018.95 1019.07 1019.15 1019.23 1019.23 1019.27 1019.31 1019.35 1019.47 1019.59 1019.67 1019.75 1019.79 1019.83 1019.87 1019.95 1019.91 1019.91 1019.91 1019.87 1019.87 1019.87 1019.87 1019.87 1019.87 1019.83 1019.83 1019.87 1019.91 1019.95 1019.95 1019.95 1019.95 1019.95 1019.99 1020.03 1020.07 1020.07 1020.07 1020.07 1020.07 1020.07 1020.07 1020.07 1020.07
1017.79 1017.87 1017.95 1017.99 1018.07 1018.19 1018.27 1018.31 1018.39 1018.43 1018.51 1018.59 1018.63 1018.67 1018.79 1018.83 1018.91 1018.91 1018.91 1018.91 1018.91 1018.95 1018.95 1018.99 1019.07 1019.11 1019.23 1019.27 1019.35 1019.39 1019.47 1019.47 1019.55 1019.63 1019.71 1019.79 1019.79 1019.79 1019.79 1019.83 1019.87 1019.87 1019.91 1019.91 1019.91 1019.91 1019.91 1019.91 1019.87 1019.83 1019.87 1019.91 1019.95 1019.95 1019.99 1020.03 1020.07 1020.07 1020.07 1020.15 1020.15 1020.19 1020.15 1020.15 1020.15 1020.19 1020.19 1020.19 1020.19
1017.71 1017.79 1017.91 1017.95 1018.03 1018.11 1018.23 1018.27 1018.39 1018.43 1018.51 1018.55 1018.63 1018.67 1018.75 1018.83 1018.87 1018.87 1018.87 1018.87 1018.95 1018.95 1018.99 1019.07 1019.15 1019.23 1019.23 1019.31 1019.39 1019.47 1019.51 1019.59 1019.67 1019.71 1019.71 1019.75 1019.79 1019.79 1019.79 1019.79 1019.83 1019.91 1019.91 1019.95 1019.95 1019.91 1019.91 1019.91 1019.83 1019.83 1019.87 1019.91 1019.95 1019.95 1019.99 1020.07 1020.07 1020.11 1020.19 1020.23 1020.23 1020.23 1020.27 1020.27 1020.27 1020.27 1020.31 1020.31 1020.31
1017.71 1017.79 1017.87 1017.95 1017.95 1018.07 1018.15 1018.23 1018.39 1018.43 1018.51 1018.59 1018.63 1018.67 1018.71 1018.79 1018.79 1018.83 1018.87 1018.91 1018.95 1018.95 1019.03 1019.11 1019.23 1019.27 1019.35 1019.35 1019.39 1019.47 1019.55 1019.63 1019.71 1019.75 1019.75 1019.75 1019.79 1019.79 1019.79 1019.79 1019.83 1019.87 1019.91 1019.95 1019.95 1019.95 1019.91 1019.87 1019.83 1019.79 1019.83 1019.87 1019.91 1019.95 1019.99 1020.07 1020.07 1020.15 1020.23 1020.23 1020.31 1020.35 1020.35 1020.39 1020.39 1020.39 1020.39 1020.39 1020.39
1017.67 1017.79 1017.83 1017.91 1017.95 1018.07 1018.15 1018.27 1018.39 1018.43 1018.51 1018.59 1018.63 1018.67 1018.71 1018.75 1018.79 1018.83 1018.95 1018.99 1019.03 1019.03 1019.07 1019.19 1019.27 1019.35 1019.39 1019.39 1019.43 1019.47 1019.51 1019.67 1019.71 1019.75 1019.75 1019.79 1019.79 1019.79 1019.79 1019.83 1019.83 1019.87 1019.87 1019.87 1019.87 1019.87 1019.83 1019.83 1019.83 1019.79 1019.83 1019.83 1019.91 1019.95 1019.99 1020.03 1020.11 1020.15 1020.23 1020.27 1020.35 1020.39 1020.43 1020.47 1020.51 1020.51 1020.51 1020.51 1020.51
1017.67 1017.75 1017.79 1017.91 1017.99 1018.07 1018.11 1018.23 1018.35 1018.43 1018.51 1018.59 1018.59 1018.67 1018.67 1018.75 1018.79 1018.95 1019.03 1019.07 1019.11 1019.11 1019.19 1019.23 1019.31 1019.35 1019.39 1019.43 1019.47 1019.51 1019.51 1019.63 1019.67 1019.75 1019.79 1019.79 1019.79 1019.79 1019.83 1019.83 1019.83 1019.79 1019.79 1019.79 1019.75 1019.75 1019.71 1019.75 1019.79 1019.79 1019.83 1019.87 1019.95 1019.95 1020.03 1020.07 1020.11 1020.19 1020.23 1020.31 1020.39 1020.43 1020.51 1020.55 1020.59 1020.63 1020.67 1020.67 1020.63
1017.63 1017.71 1017.79 1017.87 1017.95 1018.07 1018.15 1018.23 1018.35 1018.43 1018.51 1018.55 1018.55 1018.63 1018.71 1018.79 1018.87 1018.95 1019.03 1019.07 1019.15 1019.19 1019.23 1019.27 1019.35 1019.35 1019.43 1019.47 1019.51 1019.51 1019.59 1019.63 1019.67 1019.71 1019.75 1019.79 1019.79 1019.79 1019.79 1019.79 1019.79 1019.79 1019.75 1019.75 1019.67 1019.63 1019.59 1019.63 1019.67 1019.71 1019.79 1019.87 1019.91 1019.99 1020.07 1020.07 1020.11 1020.19 1020.23 1020.35 1020.39 1020.47 1020.51 1020.63 1020.71 1020.75 1020.79 1020.79 1020.75
1017.59 1017.67 1017.79 1017.83 1017.95 1018.03 1018.11 1018.23 1018.31 1018.39 1018.47 1018.55 1018.55 1018.67 1018.79 1018.83 1018.87 1018.95 1019.03 1019.11 1019.19 1019.23 1019.23 1019.31 1019.35 1019.39 1019.43 1019.47 1019.51 1019.55 1019.63 1019.67 1019.67 1019.71 1019.75 1019.79 1019.79 1019.79 1019.83 1019.79 1019.79 1019.79 1019.75 1019.67 1019.59 1019.55 1019.51 1019.47 1019.55 1019.67 1019.75 1019.83 1019.91 1019.95 1020.03 1020.11 1020.15 1020.23 1020.27 1020.35 1020.43 1020.51 1020.59 1020.67 1020.79 1020.83 1020.91 1020.91 1020.91
1017.55 1017.67 1017.75 1017.83 1017.95 1018.03 1018.07 1018.19 1018.23 1018.39 1018.47 1018.55 1018.63 1018.67 1018.79 1018.91 1018.95 1018.99 1019.07 1019.11 1019.19 1019.23 1019.27 1019.31 1019.35 1019.39 1019.47 1019.51 1019.55 1019.59 1019.63 1019.67 1019.67 1019.71 1019.75 1019.79 1019.79 1019.79 1019.79 1019.79 1019.75 1019.71 1019.67 1019.67 1019.55 1019.51 1019.43 1019.39 1019.43 1019.51 1019.67 1019.83 1019.95 1019.99 1020.03 1020.11 1020.19 1020.27 1020.35 1020.39 1020.51 1020.55 1020.67 1020.75 1020.83 1020.91 1020.99 1021.07 1021.11
1017.47 1017.55 1017.67 1017.79 1017.91 1017.99 1018.07 1018.19 1018.27 1018.39 1018.47 1018.55 1018.63 1018.71 1018.83 1018.95 1018.99 1019.07 1019.11 1019.15 1019.19 1019.23 1019.31 1019.35 1019.35 1019.39 1019.47 1019.51 1019.51 1019.55 1019.59 1019.63 1019.63 1019.67 1019.71 1019.75 1019.75 1019.75 1019.75 1019.75 1019.71 1019.67 1019.67 1019.59 1019.51 1019.47 1019.39 1019.35 1019.35 1019.43 1019.55 1019.79 1019.95 1020.03 1020.07 1020.11 1020.19 1020.27 1020.39 1020.47 1020.55 1020.67 1020.75 1020.83 1020.95 1021.03 1021.15 1021.23 1021.23
1017.35 1017.51 1017.63 1017.75 1017.87 1017.95 1018.07 1018.15 1018.23 1018.39 1018.51 1018.59 1018.67 1018.75 1018.87 1018.95 1019.03 1019.07 1019.11 1019.19 1019.23 1019.27 1019.31 1019.35 1019.39 1019.47 1019.51 1019.51 1019.51 1019.55 1019.59 1019.63 1019.63 1019.63 1019.67 1019.67 1019.67 1019.67 1019.67 1019.67 1019.67 1019.67 1019.59 1019.55 1019.51 1019.43 1019.35 1019.35 1019.31 1019.39 1019.51 1019.71 1019.87 1019.99 1020.07 1020.15 1020.23 1020.35 1020.47 1020.59 1020.67 1020.75 1020.83 1020.95 1021.07 1021.19 1021.23 1021.35 1021.35
1017.31 1017.43 1017.55 1017.67 1017.79 1017.95 1017.99 1018.07 1018.23 1018.35 1018.43 1018.55 1018.67 1018.79 1018.87 1018.95 1018.99 1019.07 1019.11 1019.15 1019.23 1019.23 1019.23 1019.23 1019.35 1019.43 1019.47 1019.47 1019.51 1019.51 1019.55 1019.59 1019.59 1019.59 1019.63 1019.63 1019.63 1019.59 1019.63 1019.63 1019.63 1019.63 1019.59 1019.51 1019.47 1019.39 1019.35 1019.31 1019.31 1019.39 1019.51 1019.71 1019.91 1020.03 1020.15 1020.23 1020.35 1020.43 1020.51 1020.67 1020.75 1020.79 1020.91 1021.03 1021.11 1021.23 1021.31 1021.35 1021.39
1017.31 1017.39 1017.51 1017.63 1017.79 1017.87 1017.95 1018.07 1018.19 1018.31 1018.43 1018.55 1018.67 1018.75 1018.79 1018.91 1018.95 1018.99 1019.07 1019.07 1019.15 1019.19 1019.23 1019.27 1019.31 1019.35 1019.39 1019.43 1019.47 1019.51 1019.55 1019.55 1019.55 1019.55 1019.55 1019.55 1019.55 1019.55 1019.55 1019.55 1019.55 1019.59 1019.55 1019.47 1019.39 1019.35 1019.31 1019.27 1019.35 1019.43 1019.55 1019.75 1019.99 1020.15 1020.23 1020.35 1020.43 1020.51 1020.63 1020.71 1020.79 1020.87 1020.95 1021.07 1021.15 1021.23 1021.31 1021.39 1021.43
1017.35 1017.39 1017.51 1017.59 1017.71 1017.79 1017.95 1018.03 1018.15 1018.27 1018.43 1018.55 1018.67 1018.75 1018.79 1018.83 1018.95 1018.99 1019.03 1019.07 1019.11 1019.19 1019.23 1019.27 1019.31 1019.35 1019.35 1019.39 1019.43 1019.47 1019.51 1019.51 1019.51 1019.51 1019.51 1019.51 1019.51 1019.51 1019.55 1019.55 1019.51 1019.51 1019.51 1019.43 1019.35 1019.27 1019.23 1019.31 1019.39 1019.51 1019.67 1019.87 1020.07 1020.23 1020.39 1020.43 1020.55 1020.67 1020.71 1020.79 1020.91 1020.95 1021.03 1021.07 1021.23 1021.27 1021.35 1021.43 1021.43
1017.35 1017.43 1017.51 1017.63 1017.67 1017.79 1017.91 1017.99 1018.11 1018.23 1018.39 1018.55 1018.67 1018.71 1018.79 1018.79 1018.91 1018.99 1019.03 1019.07 1019.11 1019.15 1019.23 1019.23 1019.27 1019.31 1019.31 1019.35 1019.39 1019.47 1019.47 1019.43 1019.43 1019.43 1019.43 1019.43 1019.51 1019.51 1019.55 1019.51 1019.51 1019.51 1019.47 1019.35 1019.31 1019.27 1019.27 1019.35 1019.51 1019.67 1019.79 1019.95 1020.19 1020.39 1020.47 1020.55 1020.67 1020.75 1020.87 1020.95 1021.07 1021.07 1021.15 1021.19 1021.27 1021.35 1021.35 1021.43 1021.47
1017.27 1017.39 1017.55 1017.67 1017.71 1017.79 1017.87 1017.95 1018.07 1018.23 1018.39 1018.51 1018.67 1018.71 1018.75 1018.79 1018.87 1018.95 1018.99 1019.03 1019.07 1019.07 1019.15 1019.19 1019.23 1019.23 1019.31 1019.35 1019.35 1019.43 1019.47 1019.43 1019.43 1019.43 1019.43 1019.47 1019.51 1019.51 1019.55 1019.51 1019.51 1019.51 1019.39 1019.31 1019.31 1019.35 1019.43 1019.55 1019.67 1019.79 1019.95 1020.11 1020.31 1020.47 1020.55 1020.67 1020.79 1020.87 1020.95 1021.07 1021.11 1021.23 1021.27 1021.31 1021.35 1021.39 1021.47 1021.51 1021.51
1017.15 1017.35 1017.51 1017.63 1017.71 1017.79 1017.83 1017.95 1018.07 1018.15 1018.31 1018.47 1018.59 1018.67 1018.67 1018.75 1018.79 1018.87 1018.95 1018.95 1019.03 1019.07 1019.15 1019.23 1019.23 1019.27 1019.35 1019.43 1019.47 1019.51 1019.51 1019.47 1019.47 1019.43 1019.47 1019.51 1019.51 1019.55 1019.59 1019.59 1019.55 1019.51 1019.39 1019.35 1019.43 1019.51 1019.63 1019.75 1019.83 1019.95 1020.11 1020.31 1020.43 1020.51 1020.63 1020.75 1020.87 1020.95 1021.07 1021.11 1021.23 1021.27 1021.35 1021.35 1021.39 1021.47 1021.51 1021.55 1021.59
1017.07 1017.23 1017.39 1017.55 1017.67 1017.71 1017.79 1017.91 1017.99 1018.07 1018.23 1018.39 1018.51 1018.55 1018.63 1018.71 1018.79 1018.87 1018.91 1018.95 1019.03 1019.11 1019.19 1019.23 1019.31 1019.35 1019.43 1019.51 1019.51 1019.51 1019.51 1019.51 1019.47 1019.47 1019.47 1019.51 1019.55 1019.59 1019.63 1019.67 1019.67 1019.59 1019.51 1019.51 1019.59 1019.67 1019.79 1019.83 1019.95 1020.07 1020.27 1020.43 1020.55 1020.63 1020.71 1020.83 1020.95 1021.03 1021.07 1021.19 1021.27 1021.35 1021.39 1021.43 1021.43 1021.47 1021.51 1021.51 1021.59
1016.95 1017.11 1017.31 1017.43 1017.55 1017.67 1017.75 1017.79 1017.91 1018.03 1018.15 1018.27 1018.39 1018.47 1018.51 1018.63 1018.71 1018.79 1018.83 1018.87 1018.99 1019.11 1019.19 1019.27 1019.35 1019.43 1019.47 1019.51 1019.51 1019.55 1019.55 1019.51 1019.51 1019.51 1019.55 1019.59 1019.63 1019.63 1019.67 1019.71 1019.75 1019.75 1019.67 1019.67 1019.71 1019.79 1019.91 1019.95 1020.07 1020.23 1020.39 1020.51 1020.63 1020.67 1020.79 1020.91 1021.03 1021.11 1021.19 1021.27 1021.35 1021.43 1021.47 1021.47 1021.47 1021.47 1021.51 1021.51 1021.51
1016.87 1017.03 1017.23 1017.35 1017.47 1017.59 1017.67 1017.75 1017.79 1017.91 1018.03 1018.19 1018.27 1018.39 1018.47 1018.55 1018.63 1018.71 1018.79 1018.79 1018.95 1019.07 1019.23 1019.31 1019.39 1019.43 1019.47 1019.47 1019.51 1019.55 1019.59 1019.59 1019.59 1019.55 1019.59 1019.67 1019.67 1019.67 1019.67 1019.75 1019.79 1019.83 1019.83 1019.79 1019.83 1019.95 1019.99 1020.03 1020.15 1020.27 1020.39 1020.51 1020.67 1020.71 1020.79 1020.95 1021.07 1021.19 1021.27 1021.35 1021.43 1021.51 1021.51 1021.51 1021.51 1021.51 1021.55 1021.55 1021.47
1016.79 1016.95 1017.11 1017.23 1017.35 1017.47 1017.59 1017.67 1017.75 1017.83 1017.95 1018.07 1018.19 1018.27 1018.39 1018.51 1018.55 1018.63 1018.67 1018.79 1018.91 1019.03 1019.11 1019.23 1019.35 1019.43 1019.47 1019.47 1019.51 1019.55 1019.63 1019.67 1019.67 1019.63 1019.63 1019.67 1019.67 1019.67 1019.67 1019.79 1019.79 1019.87 1019.91 1019.95 1019.95 1019.99 1020.07 1020.11 1020.19 1020.31 1020.47 1020.63 1020.67 1020.75 1020.83 1020.95 1021.11 1021.23 1021.35 1021.43 1021.51 1021.51 1021.55 1021.59 1021.59 1021.63 1021.67 1021.67 1021.63
1016.67 1016.83 1016.99 1017.11 1017.23 1017.35 1017.47 1017.55 1017.67 1017.79 1017.87 1017.95 1018.07 1018.19 1018.27 1018.39 1018.51 1018.55 1018.63 1018.71 1018.83 1018.95 1019.07 1019.19 1019.35 1019.39 1019.43 1019.43 1019.47 1019.55 1019.63 1019.67 1019.67 1019.67 1019.67 1019.67 1019.67 1019.67 1019.71 1019.79 1019.83 1019.91 1019.95 1019.99 1019.99 1020.07 1020.07 1020.15 1020.19 1020.31 1020.47 1020.67 1020.75 1020.79 1020.91 1021.03 1021.19 1021.35 1021.47 1021.51 1021.55 1021.59 1021.63 1021.67 1021.67 1021.71 1021.75 1021.79 1021.83
Wind_Speed
4 4 3 3 3 3 3 3 3 2 2 2 2 2 2 2 2 2 1 2 2 3 3 3 3 2 2 2 2 3 2 2 2 2 2 2 2 2 3 3 3 3 4 4 4 4 4 4 3 3 3 3 3 3 3 3 3 3 3 4 4 4 5 6 6 7 8 8 6
4 4 4 4 4 4 3 3 2 2 2 2 2 2 2 2 2 2 2 2 2 2 3 2 2 2 2 2 2 3 3 3 2 2 2 2 2 2 2 3 3 3 3 4 4 3 3 4 3 3 3 2 3 3 3 2 2 3 3 4 3 3 3 5 6 7 8 7 6
4 4 4 4 4 3 3 3 2 2 2 2 2 2 2 2 2 2 2 2 2 2 2 2 2 2 2 2 2 2 3 3 2 2 1 1 2 2 2 3 3 3 3 3 3 3 3 3 3 2 2 2 2 3 3 3 3 3 3 2 2 2 2 3 4 5 6 5 5
4 4 4 4 4 4 3 3 3 3 3 2 2 2 2 2 2 2 2 2 2 3 3 3 2 2 2 2 2 2 2 3 3 2 1 1 1 2 2 3 2 2 2 2 2 2 3 3 2 2 2 2 3 3 3 3 3 3 2 2 2 2 2 1 1 2 3 3 3
4 3 3 3 4 3 3 3 4 3 3 2 2 2 2 2 2 2 2 3 3 3 3 3 2 2 2 2 2 2 2 2 2 1 1 1 2 2 2 2 2 1 1 1 2 2 2 3 2 2 2 2 2 2 2 3 3 3 2 2 2 2 2 2 2 1 1 2 2
4 4 3 3 4 4 3 3 4 3 3 2 3 3 2 2 2 3 3 3 3 3 3 3 3 3 2 2 1 1 1 1 1 1 1 1 2 2 2 2 2 1 1 1 2 2 2 2 1 1 2 2 2 2 3 3 3 2 2 2 2 2 2 2 1 1 2 3 4
5 4 4 4 4 4 4 3 3 3 3 3 3 3 3 2 3 3 3 3 3 2 2 2 2 2 2 1 1 1 1 1 1 1 2 2 2 2 2 2 2 1 1 1 1 2 2 1 1 1 2 2 2 3 3 3 2 3 3 3 2 3 2 2 2 2 3 5 6
4 4 4 4 5 5 4 4 3 3 3 2 3 3 3 3 3 3 3 3 2 2 2 1 2 2 1 1 0 1 1 2 1 1 1 1 2 2 1 1 1 1 1 1 1 1 1 1 1 1 1 2 2 2 3 3 3 3 3 3 3 3 3 2 2 2 4 6 6
4 4 4 4 4 4 4 3 3 3 3 3 3 3 3 3 3 3 3 3 2 2 2 1 1 1 1 1 1 1 1 2 1 1 1 1 1 1 1 1 1 1 1 1 1 1 1 1 1 1 2 2 2 2 3 3 3 3 3 3 3 3 3 3 2 3 4 6 6
5 4 4 4 4 4 4 3 3 3 3 3 3 3 3 3 3 3 2 2 2 2 2 1 1 1 1 1 1 1 1 1 1 1 1 0 0 1 1 1 2 2 2 1 0 1 1 1 1 2 2 2 2 2 3 3 3 3 3 2 3 3 4 4 3 3 4 5 7
5 4 4 3 3 4 4 3 3 3 3 3 3 3 3 3 3 2 2 2 2 2 2 1 1 1 1 1 1 1 1 1 1 2 1 1 1 1 1 1 2 2 3 2 1 1 1 1 1 2 2 2 2 2 3 3 2 3 2 2 3 4 4 4 4 3 3 4 6
5 4 3 3 3 3 3 3 2 3 3 4 4 3 3 2 2 2 2 2 2 2 1 1 1 1 1 1 1 1 1 1 1 2 2 2 1 1 1 1 2 3 3 3 2 1 1 1 1 2 2 2 2 2 2 2 2 2 2 2 3 4 4 3 3 2 2 3 4
4 4 3 3 3 3 3 3 2 3 3 4 4 3 3 2 2 2 2 2 2 2 1 1 1 1 1 1 1 0 0 0 1 1 2 2 2 2 2 2 3 3 3 3 3 2 2 2 2 2 2 2 2 2 2 1 1 1 2 2 3 4 4 3 2 2 2 2 3
4 4 4 3 3 3 3 3 2 3 3 4 3 3 2 2 2 2 2 2 2 2 2 1 1 1 1 1 1 0 0 0 1 2 3 3 3 3 3 3 3 4 4 4 4 3 3 2 2 2 3 3 2 2 2 1 1 1 2 2 3 3 4 3 2 2 2 3 4
4 4 3 3 3 3 3 3 2 3 3 4 3 3 2 2 1 1 1 2 2 2 2 1 1 1 1 1 1 1 1 0 2 4 4 4 4 4 3 3 4 4 4 4 4 4 3 3 3 3 3 3 3 3 2 2 2 2 2 2 2 3 3 3 2 2 2 3 4
4 4 3 3 3 3 3 2 2 3 4 4 3 3 2 1 1 1 1 2 2 2 2 3 2 2 2 2 2 1 1 2 4 5 5 5 4 4 4 4 4 4 5 5 4 3 3 3 3 3 3 3 3 3 3 3 3 3 3 3 3 3 3 3 3 2 3 3 4
4 4 3 3 3 3 3 2 3 3 3 4 3 3 2 1 1 1 1 2 2 2 3 4 3 2 2 1 0 1 2 4 5 5 5 4 4 4 4 4 4 4 4 4 4 3 3 3 3 3 3 3 3 3 3 3 3 3 3 3 3 3 3 3 3 3 3 4 4
4 4 4 4 4 3 3 3 3 3 3 4 3 3 2 1 1 0 1 1 1 2 2 2 2 2 2 2 2 2 3 5 5 5 5 4 4 4 3 3 3 3 3 3 3 3 2 2 3 3 3 3 3 3 3 3 3 4 4 3 3 3 3 3 3 3 3 4 4
5 4 4 4 4 4 4 3 3 3 3 3 3 3 2 2 1 0 0 0 1 2 2 2 3 3 3 3 3 3 4 5 5 5 5 4 4 3 3 3 2 2 2 3 2 2 1 1 2 2 3 3 3 3 3 3 3 4 4 4 3 3 3 3 3 3 3 3 4
5 5 4 4 4 4 4 4 3 3 3 3 3 3 3 2 1 1 1 1 1 2 3 3 4 4 4 4 4 4 3 4 5 5 4 4 3 3 3 2 2 2 2 2 1 1 0 0 1 2 3 3 3 3 3 3 3 3 3 3 3 3 3 3 3 3 3 3 3
5 5 4 4 4 4 4 3 3 3 3 3 3 3 3 2 2 1 1 1 2 2 3 4 4 4 4 4 4 4 4 3 4 4 4 3 3 3 3 3 2 2 1 1 0 0 1 1 2 3 3 4 4 4 3 3 3 3 3 3 3 3 3 3 3 3 3 3 3
4 4 4 4 4 4 4 3 3 3 3 3 3 3 3 3 2 2 2 2 2 3 3 4 4 4 4 4 4 4 4 3 3 3 3 3 2 2 2 3 2 2 1 0 1 1 2 2 3 3 4 4 4 4 4 4 4 4 4 3 3 3 3 3 3 3 3 3 3
4 3 4 4 4 4 4 4 3 3 3 3 3 3 3 3 2 2 3 3 3 4 4 4 4 4 4 4 4 4 4 4 3 3 3 3 2 2 2 2 2 2 1 1 1 2 2 2 3 4 4 4 4 4 4 4 4 4 4 4 4 4 3 3 3 3 3 3 3
4 4 4 4 5 5 5 4 4 3 3 3 3 3 3 3 3 3 4 4 4 4 4 4 3 3 3 3 3 4 4 4 3 2 2 2 2 2 2 1 2 2 2 2 3 3 3 3 3 3 4 4 4 4 4 4 4 5 5 5 5 4 4 3 4 4 4 3 3
4 5 5 5 5 5 5 4 4 4 3 3 3 3 4 4 4 4 4 4 4 4 4 4 3 3 3 3 3 3 3 3 3 3 2 2 2 2 2 1 2 2 2 3 5 6 6 5 4 4 3 4 4 4 4 4 5 5 5 5 5 5 4 4 4 4 4 3 3
5 6 6 6 6 5 5 5 4 4 3 3 4 4 4 4 5 5 4 4 4 4 4 4 3 3 3 2 3 3 3 3 3 3 2 2 2 2 2 2 2 2 2 4 6 8 8 8 7 6 4 4 4 4 4 4 5 5 5 5 6 5 5 5 4 4 3 3 3
5 6 6 6 6 6 5 5 4 3 3 3 4 5 5 4 4 4 4 4 4 4 4 3 3 3 3 2 2 2 2 2 2 2 3 3 3 2 2 2 2 2 3 5 7 9 9 10 10 9 7 4 4 4 4 4 4 5 5 5 5 5 5 5 5 4 3 3 3
6 6 6 6 6 6 5 4 4 4 4 4 4 5 5 4 4 4 4 4 4 4 3 3 3 3 3 2 3 3 3 2 2 3 3 3 3 3 3 3 3 3 4 7 8 9 10 10 11 10 9 6 4 4 4 4 4 4 4 4 4 5 5 5 5 4 4 3 2
6 6 7 6 6 5 5 5 5 5 4 4 4 4 4 4 4 4 4 4 4 4 3 2 2 2 2 3 3 3 3 3 3 3 3 3 3 3 3 4 3 4 6 8 9 10 10 10 10 11 11 8 5 3 3 4 4 4 3 3 4 4 4 4 4 4 4 3 3
7 7 7 7 6 6 5 5 5 5 5 4 5 5 5 5 5 5 4 4 4 3 3 3 2 2 2 3 3 3 3 3 3 3 3 3 3 4 4 4 3 4 6 9 9 10 11 10 9 10 11 10 6 4 3 3 3 3 3 3 4 4 5 5 4 4 4 3 3
7 7 7 7 7 6 5 5 5 5 5 5 5 5 5 5 5 5 4 4 3 3 3 3 3 3 3 3 3 3 3 3 3 3 3 4 4 4 4 4 3 4 6 9 10 11 11 10 8 10 11 10 7 4 3 3 3 3 3 4 4 5 5 5 5 5 4 4 4
6 7 7 7 7 6 6 6 6 6 6 6 6 5 5 5 5 4 4 4 3 3 3 4 4 4 4 4 3 3 3 3 3 3 4 4 4 4 3 3 3 4 6 9 10 11 10 8 8 10 11 10 6 5 4 4 4 4 4 4 5 5 5 4 5 5 5 5 4
6 7 7 7 7 6 6 6 6 6 6 6 6 6 5 5 4 4 3 3 3 3 3 4 4 4 4 4 3 3 3 3 3 4 4 4 4 3 3 3 3 4 6 9 10 10 9 8 9 10 10 9 7 5 4 4 4 3 4 4 4 4 4 4 4 4 4 4 4
6 6 6 7 7 6 6 6 6 6 6 6 5 5 5 5 4 4 3 3 3 3 3 3 3 3 3 3 3 2 2 3 3 3 4 4 3 3 2 2 2 4 6 9 8 7 7 8 10 10 10 10 7 5 5 5 4 4 4 4 3 3 3 3 3 3 3 3 3
7 7 6 6 6 6 6 6 6 7 7 6 6 6 6 5 5 4 3 3 2 2 2 2 2 2 2 2 2 2 2 2 2 2 3 4 4 3 2 1 2 4 5 6 5 6 8 9 10 10 10 8 6 5 5 5 5 5 5 5 4 3 3 2 2 2 2 2 3
8 7 7 6 6 6 7 7 7 7 7 7 6 6 6 5 4 4 3 3 3 3 3 2 2 2 2 2 2 1 1 2 2 3 3 4 4 3 2 0 1 2 3 5 7 8 9 9 10 10 9 7 5 4 4 5 4 5 5 5 4 4 3 3 3 2 2 2 3
8 8 7 7 7 7 7 7 8 8 8 7 6 6 6 5 4 3 3 3 3 3 3 3 3 3 2 2 1 1 1 1 2 3 4 4 4 4 3 1 0 1 3 7 7 8 8 9 10 10 8 6 4 4 4 4 4 4 5 5 4 3 3 3 3 3 3 3 4
8 8 8 8 8 8 8 8 8 8 8 8 6 5 5 5 4 3 3 3 3 3 4 3 3 3 3 3 2 1 1 1 2 3 4 4 4 4 4 3 1 1 3 6 7 7 8 9 10 10 8 5 5 4 4 4 4 4 4 4 3 2 2 2 2 3 4 4 5
8 8 8 8 8 8 8 8 8 8 8 7 6 5 5 5 4 4 3 3 4 4 4 3 3 3 3 3 3 2 1 1 2 3 4 4 5 5 5 4 3 2 3 5 6 7 8 9 10 10 9 6 5 4 4 4 4 3 3 3 2 2 2 2 2 3 3 3 6
8 8 8 9 9 8 8 8 8 8 7 7 6 6 5 5 4 4 4 4 4 4 4 4 4 4 4 4 3 3 2 1 1 2 3 4 5 6 6 5 4 3 4 5 7 8 8 9 10 10 9 6 4 4 4 4 4 4 3 2 2 2 2 2 2 2 2 2 4
8 8 9 9 9 9 8 8 8 7 6 6 6 6 5 5 4 4 4 4 4 4 4 4 4 4 4 4 4 3 3 2 2 2 3 4 5 6 6 5 5 4 4 5 7 8 9 9 10 11 9 6 4 4 4 4 4 4 3 2 2 2 1 1 2 2 2 2 1
Wind_Direction
103 106 107 107 108 108 108 107 108 109 110 111 115 116 117 116 119 122 123 118 122 123 125 125 130 133 136 132 121 111 100 88 78 66 54 39 20 3 350 336 327 320 317 316 315 313 310 308 303 295 286 280 279 276 272 266 268 270 268 262 251 236 222 211 208 204 201 200 199
108 108 106 104 104 105 107 107 105 103 103 108 117 121 120 116 117 112 105 101 113 118 118 116 116 117 119 119 112 107 102 96 86 72 54 34 13 355 338 323 316 314 317 321 324 325 326 326 321 314 307 306 302 295 288 284 278 270 265 263 261 242 219 208 203 198 195 196 195
117 112 108 108 110 112 116 119 117 115 113 116 118 117 114 111 109 105 100 94 94 96 97 95 89 93 101 102 100 103 106 107 97 82 57 22 353 332 318 308 307 313 322 329 331 333 334 333 328 324 321 324 325 321 320 323 316 295 277 279 297 286 249 219 204 197 194 195 195
125 123 121 121 124 128 132 133 131 130 128 125 113 104 99 99 101 100 96 87 79 78 82 86 84 85 88 90 93 102 110 114 106 96 74 341 308 301 299 300 303 310 319 325 333 336 339 340 336 333 332 332 331 331 332 333 335 334 334 341 343 336 322 293 253 216 198 188 183
133 132 131 132 132 134 134 132 132 132 130 119 102 92 86 85 87 86 82 77 77 80 83 87 85 79 74 79 89 99 107 111 111 118 164 248 271 284 289 286 279 280 296 320 342 350 352 352 349 344 337 333 336 338 341 342 354 0 1 358 352 352 353 354 348 353 132 129 106
139 134 130 127 126 126 125 125 126 126 120 104 97 90 85 79 79 80 83 87 88 85 82 84 81 74 66 64 78 96 110 113 132 169 205 234 258 268 267 257 237 228 247 357 7 4 1 0 356 348 343 341 344 349 352 358 15 23 21 9 356 355 2 12 20 55 88 102 98
138 133 128 125 123 121 120 120 118 114 105 95 98 101 100 93 90 93 98 101 93 86 82 84 88 87 82 69 80 124 147 156 184 203 215 235 251 256 254 241 221 201 174 56 28 16 9 12 13 5 0 357 354 356 0 10 30 39 37 21 1 356 1 17 45 80 98 107 106
130 128 127 125 123 121 121 120 115 107 99 94 104 111 114 109 104 104 103 101 101 105 110 109 113 116 120 126 188 199 185 178 189 205 226 245 259 267 275 279 252 218 179 125 89 49 27 30 42 36 24 14 5 4 7 18 38 51 50 34 11 356 354 7 45 81 96 102 100
123 122 120 118 118 118 118 117 112 108 105 103 110 116 118 114 111 110 110 113 124 130 131 124 127 132 140 167 221 224 203 178 173 183 231 279 300 342 11 13 341 317 285 142 125 111 82 61 63 58 50 38 28 19 18 24 45 56 59 50 29 8 358 0 31 73 94 98 96
130 125 120 116 115 113 110 105 103 104 108 110 114 115 114 111 112 116 124 134 132 129 125 128 134 142 162 194 218 215 200 170 166 166 166 126 66 58 49 34 0 338 326 336 118 135 123 82 74 69 64 56 46 36 32 33 48 59 64 64 55 34 17 3 16 51 89 102 103
134 129 124 121 117 111 105 100 98 101 107 115 115 111 107 105 110 118 124 122 117 119 129 146 150 161 177 203 210 206 187 177 178 170 159 141 115 85 64 37 2 343 337 344 12 89 114 91 83 77 72 63 54 47 43 40 53 64 72 78 79 70 52 18 13 29 71 99 107
130 124 119 116 111 107 101 100 100 103 110 116 115 111 106 103 106 108 108 106 113 127 150 168 163 166 177 189 196 194 193 192 180 163 146 128 108 86 63 34 8 356 354 0 19 49 77 83 84 84 79 70 62 56 51 45 62 78 86 89 91 89 81 54 29 29 55 90 103
124 119 113 109 105 101 99 97 98 105 112 116 116 114 112 110 105 103 105 112 127 144 167 182 170 165 166 173 184 194 212 208 159 127 111 100 90 78 59 34 21 17 17 18 29 43 57 61 69 79 81 74 70 66 60 55 74 93 99 96 93 94 93 84 68 62 76 90 96
120 118 116 112 105 101 100 100 103 110 115 117 117 117 117 117 113 112 118 130 147 159 172 182 180 176 170 162 179 223 244 239 109 93 85 78 74 68 59 45 36 35 36 36 39 45 51 53 57 67 74 72 71 68 63 57 64 81 92 95 95 96 97 98 98 103 107 105 100
121 121 121 116 111 108 106 107 113 119 122 121 122 121 121 124 132 141 148 161 167 170 172 182 194 197 192 184 203 222 234 150 87 84 81 75 68 62 56 49 46 47 47 46 45 47 51 59 62 64 67 68 68 66 64 61 60 63 67 77 90 97 100 105 110 117 120 116 108
130 131 129 124 123 120 118 118 124 128 129 128 128 126 124 132 150 169 180 189 183 178 180 190 199 202 205 205 212 211 122 80 81 82 81 77 68 60 53 48 49 52 54 52 50 49 51 60 65 67 67 68 69 72 75 75 72 69 66 67 80 92 101 108 112 115 116 113 110
141 142 141 137 137 136 134 131 134 136 137 137 135 133 131 135 148 183 196 197 188 186 189 194 194 193 194 199 179 89 83 84 85 85 84 82 75 67 57 51 51 54 57 57 54 49 47 53 65 71 72 72 73 77 82 84 82 79 76 72 78 88 97 104 106 105 104 102 105
150 151 150 146 147 147 145 144 142 142 143 145 143 139 134 129 131 192 211 194 168 167 169 169 157 146 132 109 80 80 88 95 95 95 94 91 86 79 70 61 54 54 57 60 55 48 44 48 64 74 79 79 78 80 83 87 88 86 82 78 78 82 88 92 92 93 95 97 102
158 158 156 154 153 152 150 149 147 147 148 149 143 136 129 126 135 165 175 88 100 103 101 93 88 88 87 85 80 84 94 102 104 104 103 100 96 92 85 77 64 56 55 58 55 47 39 49 75 88 95 94 90 87 87 88 91 90 88 84 81 81 83 86 84 85 88 94 100
163 164 164 161 157 155 153 152 150 148 146 143 134 130 132 144 157 163 142 112 96 92 88 84 81 81 80 80 80 82 90 101 107 108 108 106 106 107 108 103 86 69 58 58 60 56 71 133 126 123 120 116 110 105 100 96 96 96 95 92 88 87 87 88 88 85 84 85 88
169 170 168 164 158 155 154 152 148 143 140 136 134 137 145 163 175 172 156 132 105 93 88 89 89 90 89 87 86 86 87 93 103 108 112 113 118 124 123 115 101 85 64 50 18 259 232 203 171 154 142 133 131 127 122 116 110 107 104 103 101 97 94 93 91 88 84 79 76
176 173 167 161 157 154 150 146 140 137 137 141 143 149 159 174 176 164 140 114 97 88 86 88 92 96 98 99 100 99 98 95 99 105 112 114 116 116 114 111 114 112 109 57 279 261 241 214 186 167 155 147 146 143 140 135 128 123 119 117 114 110 103 98 92 87 81 75 71
176 171 164 157 152 147 143 138 134 134 139 146 151 158 164 167 150 126 107 97 92 89 88 89 93 99 103 106 111 114 114 112 109 111 115 116 113 110 110 117 135 150 174 203 231 241 234 212 187 171 160 154 152 151 147 142 140 137 133 130 126 120 112 101 92 83 77 72 71
166 162 156 149 144 142 139 136 133 136 142 150 152 149 142 129 113 103 96 93 93 93 95 99 103 105 106 107 115 122 127 130 132 133 134 131 130 131 131 137 162 177 189 201 215 219 215 199 182 169 162 156 154 153 151 148 146 144 142 139 135 128 119 104 92 85 80 76 76
156 152 148 143 142 141 140 138 139 143 148 151 141 128 117 108 107 105 103 101 99 100 102 107 108 106 102 100 108 118 129 138 147 152 153 152 151 154 161 178 193 198 202 207 220 218 211 194 183 172 164 159 156 155 154 154 151 150 148 145 142 135 125 109 98 92 89 86 83
149 146 145 144 142 142 143 145 147 147 147 141 130 122 117 116 118 119 119 117 114 113 114 115 112 111 107 100 103 110 123 137 149 157 163 171 178 186 195 209 212 212 213 217 224 221 212 196 186 178 169 162 160 159 158 157 155 153 150 150 146 140 132 122 114 106 98 90 76
149 148 147 145 143 146 149 152 149 147 142 134 129 127 127 129 130 131 131 131 129 127 126 127 125 125 122 116 119 123 132 146 158 168 177 183 192 204 217 227 226 221 221 223 229 228 220 202 188 180 172 164 162 161 160 157 155 152 151 151 147 141 135 131 128 123 112 88 62
155 153 150 146 148 151 153 151 149 148 146 139 134 134 135 138 137 139 140 141 139 137 137 140 140 138 136 138 146 151 158 168 176 182 186 191 199 209 219 230 230 227 225 226 232 235 233 218 194 180 171 164 159 157 155 154 153 153 151 149 143 138 134 134 132 127 117 95 67
160 155 152 151 154 155 154 152 154 155 152 144 139 139 142 146 147 148 148 147 146 148 152 157 151 149 151 162 170 173 178 185 187 188 190 198 210 219 225 229 229 229 229 229 233 240 242 237 204 182 169 163 157 155 156 155 152 150 146 141 137 135 134 133 128 122 115 107 92
161 158 157 158 159 158 158 160 159 157 152 145 143 146 149 152 154 155 155 155 159 164 168 164 158 161 172 182 184 186 190 197 195 194 196 204 217 226 229 227 223 227 230 232 235 240 243 243 208 178 163 159 154 150 150 148 143 139 136 133 133 133 133 131 126 122 119 114 104
163 161 161 161 161 162 162 162 159 154 151 148 149 153 156 159 162 164 164 166 172 177 175 168 168 176 187 193 191 194 198 205 203 204 206 212 221 225 223 218 215 224 232 236 237 240 240 234 194 167 157 155 148 140 133 132 129 130 131 133 134 134 134 131 130 129 127 123 115
166 164 163 163 164 164 163 159 156 154 153 154 156 160 163 167 170 172 172 173 174 174 174 175 179 186 192 196 195 197 203 207 209 211 212 213 214 213 211 210 213 227 236 241 240 238 232 213 173 155 149 146 135 124 117 118 117 117 118 124 130 135 137 137 138 138 137 134 130
169 166 165 165 166 165 162 159 158 157 157 160 163 166 168 171 171 172 172 174 170 169 172 177 183 187 190 191 192 199 207 212 213 213 210 203 195 191 194 208 223 237 243 245 240 231 214 177 152 142 138 131 120 111 107 107 105 103 105 108 116 124 131 137 142 144 146 145 141
174 170 168 168 167 165 163 163 162 162 163 166 169 171 172 172 171 171 172 173 166 162 162 170 174 175 173 168 170 182 201 213 209 202 192 178 168 168 180 210 243 251 249 243 229 205 169 141 135 131 127 120 113 107 104 101 100 98 98 97 95 97 105 122 136 144 149 149 142
178 173 171 170 168 167 167 168 167 168 170 173 175 176 176 173 172 172 171 170 153 140 137 143 141 135 126 118 122 139 164 183 180 173 164 154 151 155 167 210 268 257 244 223 181 148 133 128 127 125 121 115 111 108 106 104 102 101 100 98 94 91 91 97 107 120 130 134 131
180 176 173 171 171 173 174 175 175 175 176 178 179 179 178 174 171 169 166 157 137 128 125 126 119 111 103 96 97 112 134 144 148 150 149 147 145 145 148 150 294 251 207 155 133 127 127 128 127 124 120 113 111 110 110 108 108 106 104 101 98 95 93 94 97 98 101 109 122
180 175 173 174 179 182 183 182 182 182 182 182 180 178 176 172 169 166 160 144 130 128 131 129 125 124 124 126 128 138 148 138 137 142 145 146 144 140 133 113 19 143 141 131 128 130 134 136 133 129 123 116 117 116 115 114 113 110 106 103 99 93 89 90 94 94 96 104 123
177 174 174 179 186 189 190 188 187 186 184 182 180 177 173 168 167 165 158 144 135 137 139 138 141 144 147 144 141 140 132 112 128 136 142 146 145 140 133 122 104 106 124 132 137 142 146 148 142 138 134 128 128 126 124 121 118 114 110 106 97 82 66 60 74 83 91 105 128
175 175 178 184 190 193 194 193 191 188 184 180 178 175 171 168 168 166 159 147 140 142 146 148 155 158 155 145 135 123 105 83 118 134 143 149 150 146 140 132 129 127 134 143 150 156 160 159 153 148 144 136 134 132 130 126 123 119 115 108 97 76 50 31 44 58 76 98 128
174 176 181 188 193 195 196 195 191 187 182 179 177 174 171 170 168 164 156 144 141 144 148 152 158 160 156 146 135 126 117 102 114 137 147 154 155 152 147 139 139 141 149 158 164 169 171 169 162 156 149 137 134 131 129 128 126 125 123 117 108 90 59 24 27 36 49 64 115
175 179 184 191 195 196 196 194 190 185 181 178 175 173 171 171 167 161 155 148 148 148 149 151 156 158 156 150 141 135 132 132 140 148 154 157 156 154 151 143 143 147 156 170 175 177 177 175 168 161 154 139 133 130 129 129 131 136 141 142 131 120 101 52 24 22 24 22 32